This is the latest recevied weather packets stored in our database for station/object N2XP-2. If no packets are shown the sender has not sent any weather packets the latest 10 day(s).
| Time | Temp. | Humidity | Pressure | Rain* | Wind** | Luminosity | Snow |
|---|---|---|---|---|---|---|---|
| 1777484537 | 17.22° C | 66% | 1014.2 hPa | 0 mm | 0.45 m/s, 214° | - | - |
| 1777484236 | 16.67° C | 67% | 1014.4 hPa | 0 mm | 0.45 m/s, 200° | - | - |
| 1777484212 | 16.67° C | 67% | 1014.4 hPa | 0 mm | 0.45 m/s, 117° | - | - |
| 1777484208 | 16.11° C | 68% | 1014.5 hPa | 0 mm | 0.45 m/s, 187° | - | - |
| 1777483937 | 16.67° C | 67% | 1014.4 hPa | 0 mm | 0.89 m/s, 142° | - | - |
| 1777483633 | 16.67° C | 66% | 1014.5 hPa | 0 mm | 0.45 m/s, 113° | - | - |
| 1777483035 | 16.67° C | 67% | 1014.4 hPa | 0 mm | 0.45 m/s, 117° | - | - |
| 1777482731 | 16.11° C | 68% | 1014.5 hPa | 0 mm | 0.45 m/s, 187° | - | - |
| 1777482432 | 15.56° C | 69% | 1014.6 hPa | 0 mm | 0.89 m/s, 204° | - | - |
| 1777482299 | 15.56° C | 68% | 1014.7 hPa | 0 mm | 0.45 m/s, 118° | - | - |
| 1777482296 | 15.56° C | 68% | 1014.8 hPa | 0 mm | 0.89 m/s, 104° | - | - |
| 1777482286 | 15.56° C | 69% | 1015.1 hPa | 0 mm | 0 m/s | - | - |
| 1777482133 | 15.56° C | 69% | 1014.6 hPa | 0 mm | 0.89 m/s, 131° | - | - |
| 1777481831 | 15° C | 69% | 1014.6 hPa | 0 mm | 0.89 m/s, 139° | - | - |
| 1777481532 | 15.56° C | 68% | 1014.7 hPa | 0 mm | 0.45 m/s, 118° | - | - |
| 1777481233 | 15.56° C | 68% | 1014.8 hPa | 0 mm | 0.89 m/s, 104° | - | - |
| 1777480632 | 15.56° C | 69% | 1015.1 hPa | 0 mm | 0 m/s | - | - |
| 1777480333 | 16.11° C | 68% | 1015.1 hPa | 0 mm | 1.34 m/s, 316° | - | - |
| 1777480135 | 16.11° C | 67% | 1015.2 hPa | 0 mm | 1.34 m/s, 122° | - | - |
| 1777480030 | 16.11° C | 67% | 1015.2 hPa | 0 mm | 1.34 m/s, 122° | - | - |
| 1777479731 | 16.11° C | 69% | 1015.4 hPa | 0 mm | 0.89 m/s, 118° | - | - |
| 1777479432 | 16.11° C | 69% | 1015.6 hPa | 0 mm | 0.45 m/s, 217° | - | - |
| 1777479129 | 16.11° C | 69% | 1015.6 hPa | 0 mm | 1.34 m/s, 174° | - | - |
| 1777478829 | 15.56° C | 70% | 1015.4 hPa | 0 mm | 0.89 m/s, 250° | - | - |
| 1777478530 | 15° C | 69% | 1015.3 hPa | 0 mm | 0 m/s | - | - |
* Rain latest hour (hover to see other rain measurements)
** Current wind speed in m/s (hover to see current wind gust speed)